HB9KNR Weather Reports


Display with metric or nautical units.
time (UTC)temp
F
wind
direction
speed
MPH
gust
MPH
rain 1hr
in
rain 24hr
in
rain mn
in
humidity
%
barometer
mb
20260508042517 44 0.0 0.0 0.00 0.03 0.00 91 1014.7
20260508041517 44 0.0 0.0 0.00 0.03 0.00 91 1014.7
20260508040517 44 0.0 0.0 0.00 0.03 0.00 91 1014.7
20260508035537 44 0.0 0.0 0.00 0.03 0.00 90 1014.7
20260508034537 44 0.0 0.0 0.00 0.03 0.00 90 1014.8
20260508033537 44 0.0 0.0 0.00 0.03 0.00 90 1014.7
20260508032517 44 0.0 0.0 0.00 0.03 0.00 90 1014.7
20260508031517 44 0.0 0.0 0.00 0.03 0.00 90 1014.6
20260508030517 44 0.0 0.0 0.00 0.03 0.00 89 1014.7
20260508025517 45 0.0 0.0 0.00 0.03 0.00 89 1014.7
20260508024517 45 0.0 0.0 0.00 0.03 0.00 89 1014.6
20260508023517 45 0.0 0.0 0.00 0.03 0.00 89 1014.6
20260508022517 45 0.0 0.0 0.00 0.03 0.00 89 1014.6
20260508021517 45 0.0 0.0 0.00 0.03 0.00 88 1014.5
20260508020517 46 0.0 1.0 0.00 0.03 0.00 88 1014.5
20260508015517 46 0.0 0.0 0.00 0.03 0.00 88 1014.6
20260508014517 46 0.0 0.0 0.00 0.03 0.00 88 1014.8
20260508013517 46 0.0 1.0 0.00 0.03 0.00 88 1014.7
20260508012517 46 0.0 0.0 0.00 0.03 0.00 87 1014.6
20260508011517 47 0.0 0.0 0.00 0.03 0.00 87 1014.7
20260508010517 47 0.0 0.0 0.00 0.03 0.00 86 1014.7
20260508005517 47 0.0 0.0 0.00 0.03 0.00 86 1014.7
20260508004517 47 0.0 0.0 0.00 0.03 0.00 86 1014.6
20260508003517 48 0.0 0.0 0.00 0.03 0.00 85 1014.7
20260508002537 48 0.0 0.0 0.00 0.03 0.00 85 1014.7
20260508001519 49 0.0 0.0 0.00 0.03 0.00 84 1014.8
20260508000517 49 0.0 0.0 0.00 0.03 0.00 84 1014.8
20260507235537 49 0.0 0.0 0.00 0.03 0.00 84 1014.8
20260507234517 50 0.0 0.0 0.00 0.03 0.00 83 1014.9
20260507233537 50 0.0 0.0 0.00 0.03 0.00 82 1015.0
20260507232517 50 0.0 0.0 0.00 0.03 0.00 81 1015.2
20260507231537 51 0.0 0.0 0.00 0.03 0.00 80 1015.5
20260507230517 51 0.0 0.0 0.00 0.03 0.00 79 1015.4
20260507225517 52 0.0 0.0 0.00 0.03 0.00 78 1015.5
20260507224517 52 0.0 0.0 0.00 0.03 0.00 78 1015.6
20260507223517 53 0.0 0.0 0.00 0.03 0.00 77 1015.6
20260507222537 53 0.0 0.0 0.00 0.03 0.00 77 1015.7
20260507221517 54 0.0 0.0 0.00 0.03 0.00 77 1015.7
20260507220517 54 0.0 0.0 0.00 0.03 0.00 77 1015.6
20260507215515 54 0.0 0.0 0.00 0.03 0.03 77 1015.6
20260507214515 55 0.0 1.0 0.00 0.03 0.03 77 1015.6
20260507213515 55 0.0 0.0 0.00 0.03 0.03 76 1015.6
20260507212515 55 0.0 2.0 0.00 0.03 0.03 76 1015.5
20260507211516 55 0.0 2.0 0.00 0.03 0.03 76 1015.5
20260507210536 55 0.0 0.0 0.00 0.03 0.03 75 1015.4
20260507205536 56 0.0 0.0 0.00 0.03 0.03 75 1015.4
20260507204515 56 0.0 1.0 0.00 0.03 0.03 74 1015.3
20260507203516 56 0.0 3.0 0.00 0.03 0.03 74 1015.3
20260507202515 56 0.0 0.0 0.00 0.03 0.03 72 1015.1
20260507201516 56 0.0 0.0 0.00 0.03 0.03 72 1015.0
20260507200516 56 0.0 2.0 0.00 0.03 0.03 72 1015.0
20260507195536 57 0.0 0.0 0.00 0.03 0.03 72 1014.9
20260507194536 57 0.0 0.0 0.00 0.03 0.03 71 1014.7
20260507193516 57 0.0 0.0 0.00 0.03 0.03 71 1014.8
20260507192516 57 0.0 0.0 0.00 0.03 0.03 68 1014.7
20260507191515 58 0.0 0.0 0.00 0.03 0.03 68 1014.6
20260507190535 58 0.0 0.0 0.00 0.03 0.03 67 1014.5
20260507185516 58 0.0 0.0 0.00 0.03 0.03 67 1014.5
20260507184535 58 0.0 0.0 0.00 0.03 0.03 66 1014.4
20260507183515 59 0.0 0.0 0.00 0.03 0.03 66 1014.1
20260507182518 59 0.0 0.0 0.00 0.03 0.03 65 1014.1
20260507181537 59 0.0 0.0 0.00 0.03 0.03 65 1014.0
20260507180518 59 0.0 3.0 0.00 0.03 0.03 65 1014.0
20260507175517 59 0.0 1.0 0.00 0.03 0.03 65 1013.9
20260507174517 59 0.0 0.0 0.00 0.03 0.03 64 1013.7
20260507173517 60 0.0 2.0 0.00 0.03 0.03 63 1013.7
20260507172518 60 0.0 2.0 0.00 0.03 0.03 63 1013.7
20260507171537 60 0.0 2.0 0.00 0.03 0.03 62 1013.6
20260507170516 61 0.0 2.0 0.00 0.03 0.03 61 1013.7
20260507165518 61 0.0 4.0 0.00 0.03 0.03 60 1013.7
20260507164537 61 0.0 3.0 0.00 0.03 0.03 62 1013.6
20260507163517 61 0.0 5.0 0.00 0.03 0.03 61 1013.5
20260507162517 61 0.0 1.0 0.00 0.03 0.03 61 1013.7
20260507161517 61 0.0 3.0 0.00 0.03 0.03 60 1013.7
20260507160517 61 0.0 0.0 0.00 0.03 0.03 61 1013.5
20260507155537 61 0.0 1.0 0.00 0.03 0.03 60 1013.6
20260507154537 62 0.0 2.0 0.00 0.03 0.03 59 1013.7
20260507153518 63 0.0 1.0 0.00 0.03 0.03 58 1013.7
20260507152517 62 338 1.0 3.0 0.00 0.03 0.03 59 1013.6
20260507151517 62 338 1.0 3.0 0.00 0.03 0.03 60 1013.6
20260507150517 62 0.0 1.0 0.00 0.03 0.03 61 1013.6
20260507145517 62 338 1.0 4.0 0.00 0.03 0.03 62 1013.6
20260507144517 62 338 1.0 3.0 0.00 0.03 0.03 63 1013.7
20260507143517 62 0.0 4.0 0.00 0.03 0.03 63 1013.7
20260507142517 62 0.0 3.0 0.00 0.04 0.03 64 1013.7
20260507141517 61 0.0 3.0 0.00 0.05 0.03 63 1013.6
20260507140517 62 338 1.0 4.0 0.00 0.09 0.03 63 1013.7
20260507135517 62 338 1.0 4.0 0.00 0.14 0.03 62 1013.8
20260507134517 62 338 1.0 5.0 0.00 0.17 0.03 62 1013.9
20260507133517 62 0.0 3.0 0.00 0.22 0.03 60 1013.8
20260507132517 63 338 1.0 4.0 0.00 0.27 0.03 57 1014.0
20260507131517 62 315 1.0 7.0 0.00 0.30 0.03 58 1013.9
20260507130517 62 315 2.0 8.0 0.00 0.30 0.03 58 1013.9
20260507125517 63 315 1.0 3.0 0.00 0.30 0.03 62 1014.1
20260507124518 62 315 1.0 6.0 0.00 0.30 0.03 63 1014.1
20260507123537 62 0.0 3.0 0.00 0.30 0.03 64 1013.9
20260507122537 62 0.0 3.0 0.00 0.30 0.03 69 1013.9
20260507121557 60 0.0 2.0 0.00 0.30 0.03 71 1013.9
20260507120517 60 293 1.0 3.0 0.00 0.30 0.03 76 1014.0
20260507115517 58 293 1.0 5.0 0.00 0.30 0.03 75 1013.9
20260507114537 58 293 1.0 6.0 0.00 0.30 0.03 76 1014.0
20260507113517 59 293 1.0 4.0 0.00 0.30 0.03 75 1014.1
20260507112517 59 0.0 2.0 0.00 0.30 0.03 72 1014.2
20260507111517 59 0.0 3.0 0.00 0.30 0.03 73 1014.2
20260507110517 58 293 1.0 4.0 0.00 0.30 0.03 77 1014.4
20260507105557 57 0.0 4.0 0.00 0.30 0.03 77 1014.3
20260507104517 57 0.0 2.0 0.00 0.30 0.03 78 1014.3
20260507103517 56 0.0 0.0 0.00 0.30 0.03 80 1014.4
20260507102557 56 293 1.0 5.0 0.00 0.30 0.03 78 1014.5
20260507101517 57 0.0 3.0 0.00 0.30 0.03 80 1014.5
20260507100517 56 0.0 1.0 0.00 0.30 0.03 79 1014.5
20260507095517 56 0.0 4.0 0.00 0.30 0.03 79 1014.4
20260507094517 55 0.0 4.0 0.00 0.30 0.03 82 1014.4
20260507093517 55 293 1.0 4.0 0.00 0.30 0.03 81 1014.5
20260507092517 55 0.0 2.0 0.00 0.30 0.03 83 1014.4
20260507091517 54 0.0 2.0 0.00 0.30 0.03 89 1014.2
20260507090517 53 0.0 2.0 0.00 0.30 0.03 88 1014.2
20260507085517 52 0.0 2.0 0.00 0.30 0.03 88 1014.0
20260507084517 52 0.0 1.0 0.00 0.30 0.03 89 1014.0
20260507083517 52 0.0 1.0 0.00 0.30 0.03 89 1014.1
20260507082517 52 0.0 0.0 0.00 0.30 0.03 90 1014.1
20260507081538 52 0.0 2.0 0.00 0.30 0.03 91 1014.0
20260507080517 51 0.0 2.0 0.00 0.30 0.03 92 1013.9
20260507075537 51 0.0 0.0 0.00 0.30 0.03 93 1013.9
20260507074517 50 0.0 0.0 0.00 0.30 0.03 94 1013.8
20260507073537 50 0.0 2.0 0.00 0.30 0.03 94 1013.7
20260507072517 50 0.0 0.0 0.00 0.30 0.03 94 1013.7
20260507071517 49 0.0 0.0 0.00 0.30 0.03 94 1013.6
20260507070517 49 0.0 0.0 0.00 0.30 0.03 94 1013.5
20260507065517 49 0.0 0.0 0.00 0.30 0.03 94 1013.4
20260507064517 49 0.0 0.0 0.00 0.30 0.03 94 1013.4
20260507063517 49 0.0 0.0 0.00 0.30 0.03 94 1013.4
20260507062517 48 0.0 0.0 0.00 0.30 0.03 94 1013.4
20260507061517 48 0.0 0.0 0.00 0.30 0.03 94 1013.3
20260507060517 48 0.0 0.0 0.01 0.30 0.03 94 1013.3
20260507055517 48 0.0 1.0 0.01 0.30 0.03 94 1013.1
20260507054557 47 0.0 1.0 0.02 0.30 0.03 94 1013.0
20260507053517 47 0.0 2.0 0.02 0.30 0.03 94 1012.8
20260507052516 47 0.0 1.0 0.03 0.30 0.03 94 1012.7
20260507051517 47 0.0 0.0 0.03 0.30 0.03 94 1012.4
20260507050517 47 0.0 0.0 0.02 0.29 0.02 94 1012.3
20260507045537 47 0.0 0.0 0.02 0.29 0.02 94 1012.2
20260507044537 47 0.0 0.0 0.02 0.28 0.02 94 1012.2
20260507043517 47 0.0 0.0 0.01 0.28 0.01 94 1012.1